EW8832 Weather Reports


time (UTC)temp
F
wind
direction
speed
knots
gust
knots
rain 1hr
in
rain 24hr
in
rain mn
in
humidity
%
barometer
mb
20260903154044 87 186 7.8 12.2 0.00 0.00 0.00 55 1011.9
20260903153544 87 208 5.2 13.0 0.00 0.00 0.00 55 1012.0
20260903153143 87 154 7.0 11.3 0.00 0.00 0.00 56 1011.9
20260903152542 86 175 6.1 12.2 0.00 0.00 0.00 56 1011.9
20260903152041 86 210 7.0 10.4 0.00 0.00 0.00 57 1012.0
20260903151541 86 219 5.2 13.9 0.00 0.00 0.00 57 1012.1
20260903151041 86 160 7.0 13.9 0.00 0.00 0.00 57 1012.0
20260903150540 86 205 3.5 10.4 0.00 0.00 0.00 59 1012.2
20260903150039 85 162 6.1 10.4 0.00 0.00 0.00 59 1012.2
20260903145539 85 197 6.1 10.4 0.00 0.00 0.00 60 1012.3
20260903145036 85 184 5.2 13.0 0.00 0.00 0.00 61 1012.3
20260903144536 84 184 7.8 13.0 0.00 0.00 0.00 61 1012.3
20260903144038 84 176 6.1 12.2 0.00 0.00 0.00 61 1012.3
20260903143537 84 194 5.2 8.7 0.00 0.00 0.00 61 1012.4
20260903143133 83 178 6.1 12.2 0.00 0.00 0.00 63 1012.5
20260903142537 83 182 3.5 10.4 0.00 0.00 0.00 63 1012.4
20260903142035 83 159 5.2 11.3 0.00 0.00 0.00 64 1012.4
20260903141532 83 218 3.5 12.2 0.00 0.00 0.00 65 1012.4
20260903141031 82 134 6.1 12.2 0.00 0.00 0.00 65 1012.4
20260903140531 82 180 3.5 8.7 0.00 0.00 0.00 67 1012.5
20260903140029 82 153 6.1 9.6 0.00 0.00 0.00 68 1012.5
20260903135527 81 159 7.0 9.6 0.00 0.00 0.00 68 1012.6
20260903135026 81 166 4.3 8.7 0.00 0.00 0.00 69 1012.6
20260903134525 81 176 3.5 7.8 0.00 0.00 0.00 70 1012.6
20260903134023 80 174 5.2 8.7 0.00 0.00 0.00 71 1012.6
20260903133524 80 183 3.5 7.8 0.00 0.00 0.00 72 1012.7
20260903133123 79 164 4.3 6.1 0.00 0.00 0.00 73 1012.6
20260903132522 79 173 4.3 7.0 0.00 0.00 0.00 73 1012.6
20260903132021 79 170 2.6 5.2 0.00 0.00 0.00 75 1012.5
20260903131521 78 198 0.9 4.3 0.00 0.00 0.00 76 1012.5
20260903131021 78 169 0.0 0.0 0.00 0.00 0.00 78 1012.5
20260903130520 77 169 0.0 0.0 0.00 0.00 0.00 79 1012.5
20260903130020 76 169 0.0 0.0 0.00 0.00 0.00 81 1012.6
20260903125520 76 169 0.0 0.0 0.00 0.00 0.00 81 1012.6
20260903125019 75 169 0.0 0.0 0.00 0.00 0.00 82 1012.5
20260903124518 75 169 0.0 0.0 0.00 0.00 0.00 82 1012.5
20260903124018 74 169 0.0 0.0 0.00 0.00 0.00 83 1012.5
20260903123521 74 169 0.0 0.0 0.00 0.00 0.00 84 1012.5
20260903123118 73 169 0.0 0.0 0.00 0.00 0.00 85 1012.3
20260903122519 73 169 0.0 0.0 0.00 0.00 0.00 85 1012.4
20260903122017 73 169 0.0 0.0 0.00 0.00 0.00 86 1012.3
20260903121516 72 169 0.0 0.0 0.00 0.00 0.00 86 1012.2
20260903121015 72 169 0.0 0.0 0.00 0.00 0.00 87 1012.1
20260903120516 72 169 0.0 0.0 0.00 0.00 0.00 87 1012.1
20260903120016 72 169 0.0 0.0 0.00 0.00 0.00 87 1012.1
20260903115514 71 169 0.0 0.0 0.00 0.00 0.00 87 1012.0
20260903115014 71 169 0.0 0.0 0.00 0.00 0.00 87 1012.0
20260903114514 71 169 0.0 0.0 0.00 0.00 0.00 86 1012.0
20260903114012 72 169 0.0 0.0 0.00 0.00 0.00 85 1011.9
20260903113511 72 169 0.0 0.0 0.00 0.00 0.00 84 1011.9
20260903113111 73 169 0.0 0.0 0.00 0.00 0.00 84 1011.8
20260903112512 73 169 0.0 0.0 0.00 0.00 0.00 84 1011.8
20260903112011 73 169 0.0 0.0 0.00 0.00 0.00 84 1011.9
20260903111510 73 169 0.0 0.0 0.00 0.00 0.00 84 1011.9
20260903111009 73 169 0.0 0.0 0.00 0.00 0.00 83 1011.9
20260903110509 74 169 0.0 0.0 0.00 0.00 0.00 82 1011.8
20260903110007 74 169 0.0 0.0 0.00 0.00 0.00 82 1011.8
20260903105507 74 169 0.0 0.0 0.00 0.00 0.00 82 1011.8
20260903105008 74 169 0.0 0.0 0.00 0.00 0.00 82 1011.8
20260903104506 74 169 0.0 0.0 0.00 0.00 0.00 82 1011.7
20260903104005 74 169 0.0 0.0 0.00 0.00 0.00 83 1011.7
20260903103505 74 169 0.0 0.0 0.00 0.00 0.00 82 1011.7
20260903103106 74 169 0.0 0.0 0.00 0.00 0.00 82 1011.6
20260903102508 74 169 0.0 0.0 0.00 0.00 0.00 82 1011.6
20260903102008 74 169 0.0 0.0 0.00 0.00 0.00 82 1011.6
20260903101504 74 169 0.0 1.7 0.00 0.00 0.00 82 1011.5
20260903101003 74 169 0.0 1.7 0.00 0.00 0.00 82 1011.5
20260903100503 74 169 0.0 0.0 0.00 0.00 0.00 82 1011.6
20260903100005 74 169 0.0 0.0 0.00 0.00 0.00 81 1011.5
20260903095505 74 169 0.0 0.9 0.00 0.00 0.00 81 1011.5
20260903095001 74 169 0.0 0.9 0.00 0.00 0.00 81 1011.5
20260903094501 74 169 0.0 2.6 0.00 0.00 0.00 81 1011.5
20260903094001 74 169 0.0 2.6 0.00 0.00 0.00 81 1011.4
20260903093501 74 169 1.7 3.5 0.00 0.00 0.00 80 1011.4
20260903093135 75 169 0.0 0.9 0.00 0.00 0.00 79 1011.5
20260903092501 75 169 0.0 0.0 0.00 0.00 0.00 79 1011.4
20260903092100 75 169 0.0 0.0 0.00 0.00 0.00 79 1011.4
20260903091601 75 169 0.0 0.0 0.00 0.00 0.00 79 1011.4
20260903091059 75 169 0.0 0.0 0.00 0.00 0.00 78 1011.4
20260903090557 75 169 0.0 0.0 0.00 0.00 0.00 77 1011.5
20260903090059 76 169 0.0 0.0 0.00 0.00 0.00 77 1011.4
20260903085555 76 169 0.0 0.0 0.00 0.00 0.00 76 1011.4
20260903085054 76 169 0.0 0.0 0.00 0.00 0.00 75 1011.4
20260903084554 77 169 0.0 0.0 0.00 0.00 0.00 75 1011.3
20260903084054 77 169 0.0 0.0 0.00 0.00 0.00 75 1011.3
20260903083553 77 169 0.0 0.0 0.00 0.00 0.00 75 1011.3
20260903083054 77 169 0.0 0.0 0.00 0.00 0.00 75 1011.4
20260903082554 77 169 0.0 0.0 0.00 0.00 0.00 74 1011.3
20260903082051 77 169 0.0 0.0 0.00 0.00 0.00 74 1011.3
20260903081551 77 169 0.0 0.0 0.00 0.00 0.00 74 1011.2
20260903081051 77 169 0.0 0.9 0.00 0.00 0.00 74 1011.2
20260903080553 77 169 0.0 0.9 0.00 0.00 0.00 74 1011.2
20260903080103 77 169 0.0 1.7 0.00 0.00 0.00 73 1011.1
20260903075550 77 169 0.0 2.6 0.00 0.00 0.00 73 1011.2
20260903075050 78 168 0.0 2.6 0.00 0.00 0.00 72 1011.2
20260903074602 78 169 0.9 4.3 0.00 0.00 0.00 72 1011.1
20260903074050 78 167 1.7 5.2 0.00 0.00 0.00 72 1011.2
20260903073549 78 165 2.6 5.2 0.00 0.00 0.00 73 1011.2
20260903073059 78 161 1.7 5.2 0.00 0.00 0.00 73 1011.2
20260903072547 78 181 0.9 3.5 0.00 0.00 0.00 72 1011.3
20260903072046 78 180 0.0 2.6 0.00 0.00 0.00 71 1011.2
20260903071548 78 180 0.0 2.6 0.00 0.00 0.00 71 1011.2
20260903071045 78 180 0.9 2.6 0.00 0.00 0.00 70 1011.2
20260903070547 79 180 0.0 4.3 0.00 0.00 0.00 70 1011.1
20260903070046 79 175 0.9 2.6 0.00 0.00 0.00 70 1011.2
20260903065547 79 175 0.9 2.6 0.00 0.00 0.00 70 1011.2
20260903065046 78 172 0.9 2.6 0.00 0.00 0.00 71 1011.2
20260903064546 78 170 0.0 2.6 0.00 0.00 0.00 71 1011.2
20260903064046 78 153 0.0 4.3 0.00 0.00 0.00 71 1011.2
20260903063545 78 153 0.9 5.2 0.00 0.00 0.00 71 1011.2
20260903063045 78 153 1.7 4.3 0.00 0.00 0.00 71 1011.2
20260903062545 78 153 2.6 4.3 0.00 0.00 0.00 71 1011.1
20260903062045 78 153 2.6 4.3 0.00 0.00 0.00 71 1011.2
20260903061547 78 152 1.7 4.3 0.00 0.00 0.00 70 1011.1
20260903061044 78 152 1.7 4.3 0.00 0.00 0.00 70 1011.1
20260903060545 78 152 1.7 4.3 0.00 0.00 0.00 70 1011.2
20260903060044 78 152 1.7 2.6 0.00 0.00 0.00 71 1011.0
20260903055544 78 152 1.7 2.6 0.00 0.00 0.00 71 1011.0
20260903055043 78 152 0.9 2.6 0.00 0.00 0.00 70 1011.1
20260903054542 78 152 0.9 2.6 0.00 0.00 0.00 70 1011.0
20260903054042 78 152 0.9 2.6 0.00 0.00 0.00 69 1011.0
20260903053540 79 152 0.0 1.7 0.00 0.00 0.00 69 1011.0
20260903053039 79 152 0.0 0.0 0.00 0.00 0.00 68 1011.0
20260903052540 79 152 0.0 1.7 0.00 0.00 0.00 68 1011.0
20260903052039 79 152 0.0 1.7 0.00 0.00 0.00 68 1011.0
20260903051539 79 152 0.0 2.6 0.00 0.00 0.00 68 1011.0
20260903051038 79 152 0.9 2.6 0.00 0.00 0.00 68 1010.9
20260903050537 79 152 0.9 1.7 0.00 0.00 0.00 67 1010.9
20260903050038 80 159 0.9 1.7 0.00 0.00 0.00 66 1010.8
20260903045535 80 159 0.9 1.7 0.00 0.00 0.00 66 1010.8
20260903045035 80 159 0.0 0.0 0.00 0.00 0.00 65 1010.8
20260903044535 80 159 0.0 4.3 0.00 0.00 0.00 65 1010.8
20260903044035 81 159 0.0 4.3 0.00 0.00 0.00 64 1010.8
20260903043535 81 159 1.7 4.3 0.00 0.00 0.00 64 1010.9
20260903043034 81 159 2.6 4.3 0.00 0.00 0.00 63 1010.9
20260903042534 81 159 2.6 4.3 0.00 0.00 0.00 63 1010.9
20260903042034 82 159 2.6 4.3 0.00 0.00 0.00 62 1010.9
20260903041539 82 159 1.7 4.3 0.00 0.00 0.00 62 1010.9
20260903041036 82 159 1.7 4.3 0.00 0.00 0.00 61 1010.9
20260903040534 83 159 1.7 4.3 0.00 0.00 0.00 61 1010.9
20260903040034 83 163 2.6 5.2 0.00 0.00 0.00 60 1010.9
20260903035533 83 163 2.6 5.2 0.00 0.00 0.00 60 1010.9
20260903035033 83 150 3.5 5.2 0.00 0.00 0.00 59 1010.9
20260903034544 84 135 2.6 4.3 0.00 0.00 0.00 59 1011.0
20260903034032 84 139 3.5 6.1 0.00 0.00 0.00 58 1011.0
20260903033536 85 138 3.5 7.0 0.00 0.00 0.00 58 1011.0
20260903033040 85 146 4.3 7.0 0.00 0.00 0.00 57 1010.9
20260903032534 85 148 4.3 7.8 0.00 0.00 0.00 56 1010.9
20260903032033 86 143 4.3 11.3 0.00 0.00 0.00 56 1010.9
20260903031537 86 144 6.1 11.3 0.00 0.00 0.00 56 1010.9
20260903031032 86 146 6.1 9.6 0.00 0.00 0.00 56 1010.9
20260903030532 86 143 6.1 9.6 0.00 0.00 0.00 55 1010.9
20260903030033 86 148 5.2 8.7 0.00 0.00 0.00 55 1010.9
20260903025534 86 143 5.2 8.7 0.00 0.00 0.00 55 1010.8
20260903025032 87 153 5.2 10.4 0.00 0.00 0.00 55 1010.8
20260903024532 87 130 5.2 9.6 0.00 0.00 0.00 54 1010.8
20260903024033 87 145 6.1 12.2 0.00 0.00 0.00 54 1010.8
20260903023535 87 154 7.0 11.3 0.00 0.00 0.00 54 1010.6
20260903023036 87 144 5.2 8.7 0.00 0.00 0.00 54 1010.6
20260903022532 87 137 4.3 8.7 0.00 0.00 0.00 54 1010.5
20260903022031 87 167 4.3 8.7 0.00 0.00 0.00 54 1010.5
20260903021531 87 173 3.5 8.7 0.00 0.00 0.00 53 1010.5
20260903021031 88 153 4.3 8.7 0.00 0.00 0.00 53 1010.5
20260903020533 88 145 5.2 8.7 0.00 0.00 0.00 53 1010.4
20260903020032 88 137 5.2 13.9 0.00 0.00 0.00 52 1010.1
20260903015531 88 147 6.1 13.9 0.00 0.00 0.00 53 1010.2
20260903015030 88 142 5.2 8.7 0.00 0.00 0.00 53 1010.2
20260903014546 88 145 4.3 7.0 0.00 0.00 0.00 52 1010.1
20260903014031 88 133 4.3 7.0 0.00 0.00 0.00 51 1010.0
20260903013531 89 150 3.5 7.0 0.00 0.00 0.00 51 1009.9
20260903013034 89 164 4.3 8.7 0.00 0.00 0.00 50 1009.8
20260903012533 89 153 5.2 8.7 0.00 0.00 0.00 50 1009.8
20260903012032 89 150 5.2 7.8 0.00 0.00 0.00 49 1009.7
20260903011535 89 141 5.2 7.8 0.00 0.00 0.00 49 1009.7
20260903011033 90 161 4.3 7.8 0.00 0.00 0.00 48 1009.7
20260903010530 90 152 3.5 8.7 0.00 0.00 0.00 47 1009.6
20260903010030 91 155 4.3 8.7 0.00 0.00 0.00 46 1009.6
20260903005531 91 149 4.3 8.7 0.00 0.00 0.00 46 1009.6
20260903005030 91 165 5.2 9.6 0.00 0.00 0.00 46 1009.6
20260903004541 91 168 6.1 9.6 0.00 0.00 0.00 45 1009.5
20260903004031 92 163 4.3 9.6 0.00 0.00 0.00 44 1009.4
20260903003531 92 163 5.2 9.6 0.00 0.00 0.00 44 1009.4
20260903003038 92 144 6.1 11.3 0.00 0.00 0.00 44 1009.3
20260903002530 93 168 7.8 11.3 0.00 0.00 0.00 43 1009.3
20260903002030 93 167 4.3 9.6 0.00 0.00 0.00 42 1009.3
20260903001530 93 161 4.3 9.6 0.00 0.00 0.00 42 1009.3
20260903001029 94 147 5.2 10.4 0.00 0.00 0.00 41 1009.3
20260903000529 94 167 6.1 12.2 0.00 0.00 0.00 40 1009.4
20260903000030 94 160 4.3 9.6 0.00 0.00 0.00 39 1009.3
20260902235529 94 153 5.2 9.6 0.00 0.00 0.00 39 1009.3
20260902235029 95 182 6.1 9.6 0.00 0.00 0.00 39 1009.3
20260902234528 95 159 6.1 13.9 0.00 0.00 0.00 39 1009.3
20260902234028 95 158 7.0 13.9 0.00 0.00 0.00 39 1009.3
20260902233527 95 163 7.0 10.4 0.00 0.00 0.00 39 1009.3
20260902233027 96 176 6.1 10.4 0.00 0.00 0.00 39 1009.3
20260902232529 96 180 6.1 8.7 0.00 0.00 0.00 37 1009.4
20260902232026 96 167 5.2 9.6 0.00 0.00 0.00 37 1009.4
20260902231526 96 182 6.1 10.4 0.00 0.00 0.00 37 1009.5
20260902231026 96 159 6.1 13.9 0.00 0.00 0.00 37 1009.5
20260902230531 96 165 7.8 13.9 0.00 0.00 0.00 37 1009.4
20260902230026 97 159 6.1 12.2 0.00 0.00 0.00 36 1009.4
20260902225527 97 141 7.0 12.2 0.00 0.00 0.00 36 1009.4
20260902225027 97 177 7.0 10.4 0.00 0.00 0.00 37 1009.4
20260902224526 97 146 7.0 12.2 0.00 0.00 0.00 37 1009.4
20260902224027 97 155 9.6 12.2 0.00 0.00 0.00 37 1009.4
20260902223528 97 109 7.8 13.9 0.00 0.00 0.00 36 1009.5
20260902223031 98 108 8.7 14.8 0.00 0.00 0.00 36 1009.5
20260902222525 98 165 10.4 14.8 0.00 0.00 0.00 36 1009.6
20260902222029 98 163 7.0 12.2 0.00 0.00 0.00 35 1009.6
20260902221525 98 138 3.5 7.8 0.00 0.00 0.00 36 1009.7
20260902221025 98 252 3.5 9.6 0.00 0.00 0.00 35 1009.7
20260902220525 98 210 5.2 13.0 0.00 0.00 0.00 35 1009.7
20260902220025 98 134 6.1 11.3 0.00 0.00 0.00 35 1009.7
20260902215523 98 116 7.0 11.3 0.00 0.00 0.00 35 1009.7
20260902215023 99 167 5.2 9.6 0.00 0.00 0.00 35 1009.8
20260902214528 99 165 4.3 11.3 0.00 0.00 0.00 34 1009.8
20260902214023 98 186 6.1 11.3 0.00 0.00 0.00 36 1009.8
20260902213522 98 96 7.0 13.0 0.00 0.00 0.00 36 1009.8
20260902213027 98 101 8.7 13.0 0.00 0.00 0.00 36 1009.8
20260902212520 98 107 7.0 14.8 0.00 0.00 0.00 36 1009.9
20260902212020 98 108 7.0 14.8 0.00 0.00 0.00 36 1009.9
20260902211520 98 149 3.5 7.0 0.00 0.00 0.00 36 1010.0
20260902211020 97 98 2.6 9.6 0.00 0.00 0.00 37 1010.0
20260902210519 97 113 2.6 11.3 0.00 0.00 0.00 37 1010.1
20260902210026 98 128 7.8 12.2 0.00 0.00 0.00 36 1010.1
20260902205518 98 123 7.8 12.2 0.00 0.00 0.00 36 1010.1
20260902205017 98 182 5.2 12.2 0.00 0.00 0.00 36 1010.2
20260902204518 98 144 3.5 9.6 0.00 0.00 0.00 36 1010.3
20260902204015 98 265 3.5 9.6 0.00 0.00 0.00 37 1010.3
20260902203515 98 138 4.3 10.4 0.00 0.00 0.00 37 1010.3
20260902203022 97 93 7.0 11.3 0.00 0.00 0.00 38 1010.4
20260902202514 98 125 7.8 11.3 0.00 0.00 0.00 37 1010.4
20260902202013 98 130 5.2 9.6 0.00 0.00 0.00 36 1010.5
20260902201517 98 190 3.5 9.6 0.00 0.00 0.00 36 1010.6
20260902201011 97 225 5.2 11.3 0.00 0.00 0.00 37 1010.7
20260902200509 97 166 7.0 14.8 0.00 0.00 0.00 36 1010.8
20260902200013 96 160 4.3 8.7 0.00 0.00 0.00 38 1010.8
20260902195509 96 138 4.3 8.7 0.00 0.00 0.00 37 1010.9
20260902195008 96 150 2.6 12.2 0.00 0.00 0.00 36 1011.0
20260902194508 96 180 4.3 12.2 0.00 0.00 0.00 37 1011.1
20260902194009 95 96 2.6 8.7 0.00 0.00 0.00 39 1011.2
20260902193507 95 138 1.7 10.4 0.00 0.00 0.00 39 1011.4
20260902193006 96 168 4.3 10.4 0.00 0.00 0.00 38 1011.4
20260902192505 97 146 7.0 11.3 0.00 0.00 0.00 37 1011.5
20260902192005 97 117 7.8 11.3 0.00 0.00 0.00 38 1011.5
20260902191504 96 153 4.3 9.6 0.00 0.00 0.00 39 1011.5
20260902191005 96 103 1.7 7.0 0.00 0.00 0.00 39 1011.6
20260902190505 96 202 1.7 7.8 0.00 0.00 0.00 40 1011.8
20260902190002 96 85 2.6 13.0 0.00 0.00 0.00 39 1011.8
20260902185502 96 128 2.6 13.0 0.00 0.00 0.00 39 1011.8
20260902185100 96 139 6.1 11.3 0.00 0.00 0.00 40 1011.9
20260902184603 96 217 4.3 12.2 0.00 0.00 0.00 40 1012.0
20260902184058 95 142 5.2 12.2 0.00 0.00 0.00 40 1012.0
20260902183558 96 229 3.5 11.3 0.00 0.00 0.00 40 1012.1
20260902183110 95 211 5.2 11.3 0.00 0.00 0.00 40 1012.2
20260902182555 95 213 4.3 8.7 0.00 0.00 0.00 41 1012.3
20260902182055 94 242 0.9 10.4 0.00 0.00 0.00 42 1012.4
20260902181555 94 180 0.9 13.0 0.00 0.00 0.00 41 1012.5
20260902181053 95 154 8.7 13.0 0.00 0.00 0.00 41 1012.6
20260902180553 94 273 4.3 8.7 0.00 0.00 0.00 44 1012.6
20260902180052 94 296 6.1 10.4 0.00 0.00 0.00 42 1012.7
20260902175052 94 257 3.5 10.4 0.00 0.00 0.00 44 1012.9
20260902174553 94 221 5.2 10.4 0.00 0.00 0.00 45 1013.1
20260902174051 94 273 3.5 10.4 0.00 0.00 0.00 45 1013.2
20260902173549 94 234 2.6 7.0 0.00 0.00 0.00 45 1013.2
20260902173049 94 219 3.5 9.6 0.00 0.00 0.00 44 1013.3
20260902172545 94 233 5.2 9.6 0.00 0.00 0.00 45 1013.4
20260902172048 94 176 5.2 8.7 0.00 0.00 0.00 45 1013.5
20260902171543 93 224 3.5 8.7 0.00 0.00 0.00 45 1013.5
20260902171044 93 274 2.6 8.7 0.00 0.00 0.00 46 1013.6
20260902170541 93 260 4.3 11.3 0.00 0.00 0.00 46 1013.6
20260902170045 92 142 8.7 10.4 0.00 0.00 0.00 47 1013.6
20260902165039 92 175 3.5 9.6 0.00 0.00 0.00 47 1013.8
20260902164538 92 176 5.2 9.6 0.00 0.00 0.00 48 1013.9
20260902164036 92 221 5.2 7.8 0.00 0.00 0.00 48 1014.0
20260902163535 92 187 4.3 10.4 0.00 0.00 0.00 49 1014.0
20260902163038 92 213 7.0 10.4 0.00 0.00 0.00 49 1014.0
20260902162533 91 241 0.9 7.0 0.00 0.00 0.00 50 1014.0
20260902162031 91 228 4.3 7.0 0.00 0.00 0.00 50 1014.1
20260902161530 90 224 0.9 7.0 0.00 0.00 0.00 51 1014.0
20260902161031 90 223 4.3 8.7 0.00 0.00 0.00 52 1014.1
20260902160529 90 259 3.5 8.7 0.00 0.00 0.00 52 1014.1
20260902160028 90 182 3.5 7.8 0.00 0.00 0.00 53 1014.1
20260902155032 89 175 2.6 7.8 0.00 0.00 0.00 54 1014.2
20260902154533 89 290 3.5 7.8 0.00 0.00 0.00 54 1014.2